Volver al catálogo

THORAD DELTA 1 DEB

LostSSO
NORAD 42600·DEBRIS·🇺🇸 United States

Lanzado Nov 15, 1974 desde Vandenberg Space Force Base

Loading…

Próximos Pases (próximas 24 horas)

TLE

ObsoletoSource: Space-Track

Época: Aug 22, 2016, 07:05 UTC

1 42600U 74089FR  16235.29564104  .00000089  00000-0  85552-3 0  9993
2 42600 101.5654 263.1755 0052625 320.3049  37.9026 12.51445564455756

Sigue THORAD DELTA 1 DEB en tiempo real con AllMySat

Download on the App Store